Wetbulb
60.09 57.22 53.69 49.17 42.47 38.51 33.15 36.50 41.37 41.32 39.82 43.76 45.18 42.74 40.89 41.50 40.11 34.72 48.54 50.63 50.13 48.81 49.51 52.87 59.27 60.53 61.32 62.07 62.33 64.46 65.33 65.83 66.39 67.16 68.25 69.53 71.59 71.82 72.76 73.26 73.46 73.84 73.78 73.23 73.16 73.09 72.94 73.06 72.56
58.38 56.61 50.34 44.56 37.07 31.14 31.76 38.10 38.57 42.07 44.01 45.25 44.54 43.59 41.69 40.48 46.90 46.73 46.76 49.84 49.10 48.40 48.27 51.68 58.15 59.02 60.44 60.87 61.22 62.75 64.37 63.87 64.58 65.32 66.06 66.97 68.87 71.07 71.81 72.62 72.77 73.51 73.69 73.31 72.81 72.73 73.19 73.38 72.19
54.35 52.96 43.99 37.27 31.97 29.88 31.57 37.20 39.97 42.68 45.09 44.66 42.05 43.07 42.26 40.93 46.81 47.15 48.12 48.59 48.62 47.68 47.62 50.79 56.72 57.40 59.01 59.58 60.28 60.54 60.92 62.01 62.65 63.25 63.97 65.27 66.04 67.25 68.97 71.27 71.80 72.71 73.52 73.43 73.06 72.88 73.74 72.46 71.29
51.47 47.89 43.44 36.19 31.26 34.44 34.82 36.73 40.00 41.61 42.68 43.53 42.31 38.00 44.02 47.59 47.06 47.86 47.72 47.69 47.10 47.21 47.21 49.75 55.20 55.99 57.19 58.02 58.31 59.35 59.46 59.85 61.73 61.80 62.63 63.37 64.21 64.96 66.09 68.28 70.74 71.61 73.02 73.64 73.55 73.66 72.79 71.19 70.57
47.94 43.60 34.66 31.58 32.37 35.48 37.55 39.33 40.65 39.54 39.73 40.36 41.33 36.18 38.77 44.95 48.76 47.73 45.85 46.63 45.54 46.60 46.69 46.28 53.63 54.66 55.44 56.56 56.63 57.77 58.25 58.60 60.02 61.39 61.80 61.52 61.80 62.67 63.41 64.78 66.70 69.77 71.23 72.71 73.08 72.92 71.86 70.71 70.11
43.11 41.24 31.56 28.44 32.26 36.43 37.50 38.99 40.67 39.88 40.42 40.16 39.09 37.64 37.48 42.21 44.50 45.81 46.03 44.20 44.78 44.67 46.16 45.79 50.71 53.31 53.64 54.82 55.33 55.86 56.17 57.29 56.72 56.30 57.19 58.56 59.79 60.49 61.56 62.33 63.57 65.31 67.12 69.53 71.20 71.28 71.32 69.97 69.45
41.24 36.71 31.89 33.13 32.46 33.56 37.12 40.09 38.99 38.62 38.42 37.52 40.59 36.24 38.75 40.12 41.58 42.99 43.16 43.17 43.31 43.71 44.97 44.74 44.60 48.12 51.29 52.21 54.11 54.12 54.32 54.42 54.12 54.06 54.17 54.44 55.99 57.26 59.94 60.64 61.38 62.53 64.14 66.38 68.66 69.88 69.92 69.88 68.44
42.34 38.33 33.17 32.27 31.81 31.03 37.72 39.31 39.42 38.22 37.23 42.69 40.47 34.59 32.34 37.60 40.48 41.33 41.04 41.34 42.08 43.05 43.38 43.27 43.62 44.07 44.83 44.73 51.82 52.93 53.52 53.40 53.12 52.68 52.79 51.78 51.83 54.00 55.40 56.75 59.50 60.63 61.56 62.72 65.40 66.90 68.63 68.99 67.86
42.82 33.72 29.86 30.42 31.63 32.84 36.69 36.51 40.46 41.12 38.76 39.66 39.50 38.69 40.00 41.52 40.88 39.29 38.23 39.81 40.97 43.23 42.18 43.12 42.93 43.10 43.76 44.53 46.46 48.92 51.13 51.93 51.14 49.88 50.52 47.63 46.05 47.77 50.92 53.82 56.40 58.25 59.98 60.03 61.13 63.66 66.98 68.13 67.50
37.98 31.05 30.14 35.53 35.29 34.74 37.56 38.08 39.04 36.99 36.49 36.02 37.24 39.53 40.70 40.41 38.62 37.59 37.45 37.38 38.44 39.79 41.08 40.76 41.00 41.41 42.77 44.63 43.07 43.88 45.48 45.87 46.22 45.71 45.01 44.70 44.69 45.34 48.00 51.13 53.72 55.63 57.21 58.45 58.91 60.18 63.61 67.05 68.20
36.36 31.71 36.57 36.61 38.80 39.33 36.31 36.91 37.36 35.65 33.81 35.75 35.27 37.11 38.60 38.34 37.18 36.74 37.32 37.22 36.84 38.49 40.54 41.12 40.84 40.62 41.48 41.93 42.51 43.20 43.76 44.62 45.01 44.75 44.29 43.54 43.76 43.57 44.37 45.93 48.96 50.65 53.26 52.72 55.75 56.56 58.79 60.95 67.88
36.19 38.14 38.21 38.23 38.67 37.60 35.66 37.32 35.82 36.14 36.41 38.75 38.09 38.22 37.35 36.51 36.27 36.50 37.01 36.86 37.26 38.43 39.58 40.06 39.81 39.80 40.49 40.78 41.50 42.26 42.32 43.80 43.86 43.46 43.60 42.42 42.08 42.16 42.72 43.36 44.81 46.91 48.51 49.18 51.35 55.47 56.21 57.59 60.64
37.60 38.17 39.58 39.26 39.14 38.01 39.57 36.53 35.86 36.20 37.71 38.34 38.62 38.14 36.37 35.96 34.92 35.33 35.49 37.27 37.31 38.43 39.55 39.69 39.70 39.06 40.01 40.43 40.76 41.44 41.29 42.35 42.95 43.02 42.77 42.22 41.46 41.30 41.92 42.32 42.74 43.73 45.23 47.07 48.24 51.45 53.75 55.77 57.30
39.65 39.07 37.85 38.74 38.77 39.03 36.73 34.63 35.34 36.04 36.90 36.05 36.84 33.95 32.67 35.21 34.94 35.22 36.82 35.67 37.65 38.55 38.96 39.56 39.68 38.81 39.12 38.83 38.41 39.71 40.77 41.25 42.68 42.09 41.90 41.16 41.32 40.97 41.25 41.81 41.60 41.56 43.08 45.32 46.80 48.24 49.75 52.42 54.82
40.09 35.43 37.23 36.79 37.06 37.09 38.05 32.42 30.61 36.07 35.72 34.17 33.37 32.94 33.42 35.23 34.61 35.28 35.02 35.67 35.88 37.05 38.09 39.17 40.66 39.07 38.15 37.78 38.24 39.57 40.33 40.79 40.25 41.06 40.56 39.24 40.83 40.36 40.57 41.04 40.66 41.37 42.02 44.03 45.59 46.73 47.79 50.43 54.15
36.50 35.78 29.64 35.90 36.63 36.49 33.74 26.45 32.05 33.59 34.80 32.05 32.03 31.78 34.02 34.37 35.23 35.24 36.25 35.26 35.21 36.12 38.23 38.72 40.78 38.38 37.92 37.57 38.06 39.10 39.36 39.45 39.11 39.02 38.74 38.35 39.57 39.45 39.83 40.53 39.96 40.72 41.53 42.71 43.72 44.07 44.81 46.55 49.10
34.74 29.25 30.56 31.77 35.21 34.63 32.47 27.53 31.92 33.24 34.76 32.70 30.09 29.88 33.33 34.64 36.26 35.92 35.69 34.89 36.56 36.76 37.99 37.93 38.10 37.62 37.83 37.99 38.09 37.92 38.59 38.50 38.37 37.29 37.53 37.55 38.48 39.13 38.88 40.10 39.49 40.25 40.86 41.04 41.18 42.26 43.08 43.28 46.73
29.85 29.20 26.21 29.02 29.63 32.41 29.12 27.76 31.82 32.43 33.82 31.00 27.80 30.78 33.10 33.78 34.28 36.33 36.53 35.87 36.90 37.14 37.81 37.83 37.95 37.72 37.72 37.66 37.36 37.33 37.54 38.00 37.98 37.31 38.10 37.43 37.42 38.39 37.94 37.80 37.75 39.43 39.59 39.66 38.81 39.80 42.27 42.97 45.92
34.20 31.62 29.16 27.90 32.89 31.88 28.97 28.56 30.47 29.99 29.89 29.65 29.38 31.25 31.54 33.00 34.93 35.14 36.10 36.07 37.12 38.08 37.71 37.40 37.08 37.28 36.67 35.87 35.35 36.26 35.87 36.54 37.38 37.44 37.22 36.64 36.61 37.49 37.97 37.53 37.40 38.51 38.71 38.87 38.95 39.21 39.79 40.87 42.57
33.81 30.95 28.21 30.91 34.27 32.70 28.02 27.59 27.91 29.54 30.84 30.92 31.50 29.79 30.03 30.76 33.43 36.06 36.10 34.90 35.06 35.63 36.80 37.26 36.58 36.57 36.09 35.98 35.66 35.36 35.22 36.23 36.11 35.74 34.99 36.02 36.36 37.73 37.48 37.20 36.76 37.88 38.17 38.96 38.72 38.15 37.41 39.30 41.43
32.46 29.98 30.21 30.73 32.52 32.16 30.21 26.00 28.26 31.78 32.68 33.54 32.32 31.76 31.51 30.62 31.00 34.60 35.82 35.08 34.46 34.49 35.12 37.11 36.14 36.36 36.70 36.63 35.81 35.96 36.12 35.12 33.57 33.62 33.93 34.57 36.40 37.24 37.34 37.63 36.82 37.58 38.08 38.18 38.29 37.89 36.79 36.03 39.69
29.82 36.39 35.20 33.14 29.27 22.41 31.46 18.98 27.08 29.61 30.86 31.57 31.47 30.50 28.70 30.32 33.11 33.76 34.74 35.08 34.32 34.34 35.06 35.67 36.36 36.04 37.81 36.31 34.63 33.21 32.30 31.16 32.39 32.17 33.39 33.91 35.50 36.92 37.62 38.48 38.02 37.46 38.14 37.40 38.00 37.87 36.64 36.77 36.02
33.12 38.31 36.00 34.65 29.39 25.65 27.76 21.31 26.09 29.61 27.75 29.91 30.57 32.05 29.76 30.77 32.03 33.40 34.59 34.97 35.72 33.71 34.61 34.30 35.53 36.18 36.06 35.31 34.50 33.12 31.56 31.80 32.55 32.15 31.95 33.03 34.80 35.53 37.53 38.64 38.82 37.78 37.79 37.27 38.25 36.43 34.03 36.54 36.73
39.01 36.38 34.01 33.03 28.66 15.47 25.67 22.45 20.46 24.43 28.87 30.03 31.76 32.46 32.18 31.87 32.61 34.05 35.50 36.81 36.26 34.62 34.41 34.05 34.51 34.86 35.23 34.37 34.53 33.27 31.61 31.31 31.51 32.01 30.95 32.75 34.23 34.67 36.18 38.34 38.86 38.80 38.47 38.10 37.22 33.88 33.27 35.96 36.99
36.10 29.32 14.88 15.46 14.64 12.91 30.60 24.90 23.63 31.11 31.90 32.50 31.53 31.68 31.49 31.57 31.92 32.48 33.34 35.50 34.64 34.93 34.19 35.18 33.77 33.79 34.10 33.74 34.49 33.32 32.42 31.88 31.31 31.49 30.99 32.13 32.68 33.02 34.19 37.28 38.10 37.52 37.93 38.53 36.48 32.68 33.54 35.84 35.78
32.89 30.00 16.51 6.51 13.11 20.54 29.87 21.15 23.37 32.30 33.26 33.49 33.29 32.22 31.40 31.62 32.36 32.86 34.90 35.40 34.92 34.57 33.53 32.82 33.36 33.40 33.33 33.78 33.64 33.02 31.99 31.99 32.46 32.40 31.94 32.82 32.59 33.00 34.81 35.58 36.98 36.57 36.25 37.45 34.10 32.25 33.51 35.35 35.90
32.19 25.67 33.04 24.45 24.12 15.08 20.67 26.51 30.66 31.94 31.41 32.24 31.30 31.52 30.85 32.03 33.07 34.24 36.55 34.39 34.83 34.01 33.38 32.47 33.07 33.17 33.29 33.46 32.49 32.18 32.09 32.13 32.05 32.07 32.36 32.12 32.48 33.89 34.24 34.87 35.26 35.85 35.56 35.89 32.65 31.61 33.40 34.67 35.74
32.23 33.79 23.48 21.54 6.86 2.35 14.14 23.16 21.83 25.68 26.72 29.55 29.45 29.56 30.69 32.60 33.63 34.75 36.54 34.46 34.28 33.31 32.95 32.10 32.62 32.73 33.33 33.62 32.58 32.61 32.22 32.82 32.35 31.73 31.13 31.19 31.83 32.76 33.21 34.03 34.77 34.82 35.21 35.01 32.26 32.05 33.57 34.28 35.64
25.53 21.47 20.34 17.96 9.73 3.56 0.04 12.72 24.20 27.45 25.25 25.78 27.30 29.50 30.41 32.03 33.49 35.10 34.44 33.81 33.10 32.12 31.56 31.48 32.13 32.59 32.87 32.89 32.66 32.06 31.90 31.99 31.72 31.04 30.90 30.77 31.29 32.76 32.92 33.82 34.92 34.38 35.33 33.77 31.48 31.46 32.70 33.77 35.09
30.92 22.28 18.55 13.41 6.01 14.12 5.62 12.98 22.38 27.45 27.70 29.11 29.69 31.92 32.22 33.21 34.79 34.80 33.25 32.77 31.70 31.27 31.25 30.75 31.76 32.13 33.37 33.10 32.68 32.01 31.70 31.00 29.97 30.50 30.56 31.30 31.00 32.91 32.96 33.41 33.53 32.64 34.90 32.84 31.36 31.02 32.53 33.45 34.67
MSLP
1009.93 1009.46 1009.50 1010.07 1013.97 1018.67 1021.84 1023.30 1023.16 1023.31 1023.97 1024.21 1023.43 1023.38 1024.83 1025.32 1025.90 1027.69 1027.89 1027.53 1027.05 1026.48 1025.44 1024.41 1023.43 1022.62 1021.77 1021.15 1020.52 1019.76 1019.29 1018.75 1018.15 1017.48 1016.79 1016.18 1015.71 1015.30 1015.09 1014.92 1014.85 1014.77 1014.65 1014.59 1014.52 1014.38 1014.43 1014.42 1014.41
1010.04 1009.65 1010.29 1013.48 1017.58 1021.55 1023.98 1024.25 1023.96 1023.41 1023.89 1024.07 1024.35 1024.93 1025.25 1026.16 1026.59 1027.83 1028.04 1027.86 1027.46 1026.68 1025.85 1024.94 1024.05 1023.20 1022.38 1021.65 1021.02 1020.29 1019.73 1019.32 1018.78 1018.10 1017.47 1016.90 1016.17 1015.57 1015.06 1014.76 1014.68 1014.64 1014.60 1014.58 1014.50 1014.47 1014.38 1014.53 1014.66
1010.12 1010.17 1014.19 1018.09 1022.07 1024.06 1024.72 1024.82 1024.78 1024.47 1024.16 1024.04 1024.78 1025.62 1026.24 1027.47 1027.76 1028.52 1028.62 1028.12 1027.59 1026.84 1026.17 1025.25 1024.38 1023.70 1022.95 1022.23 1021.53 1020.88 1020.41 1019.87 1019.41 1018.73 1018.04 1017.49 1016.90 1016.26 1015.56 1014.82 1014.71 1014.54 1014.40 1014.37 1014.36 1014.30 1014.34 1014.47 1014.65
1010.43 1012.93 1017.71 1021.84 1024.31 1025.36 1025.46 1025.24 1024.69 1024.47 1024.83 1024.96 1025.25 1026.81 1028.11 1028.16 1028.55 1029.08 1028.78 1028.14 1027.63 1027.30 1026.63 1025.85 1024.95 1024.24 1023.46 1022.70 1022.09 1021.39 1020.78 1020.24 1019.75 1019.30 1018.64 1018.00 1017.40 1016.68 1016.06 1015.38 1014.72 1014.44 1014.42 1014.23 1014.14 1014.22 1014.34 1014.42 1014.61
1011.77 1016.26 1021.02 1024.31 1025.52 1026.30 1026.14 1025.63 1024.72 1024.88 1025.53 1025.91 1025.91 1028.26 1028.71 1029.23 1029.19 1029.18 1028.87 1028.37 1028.07 1027.71 1027.06 1026.30 1025.40 1024.69 1024.06 1023.32 1022.69 1022.02 1021.39 1020.83 1020.21 1019.68 1019.18 1018.58 1018.15 1017.38 1016.64 1016.14 1015.46 1014.88 1014.31 1014.08 1014.03 1014.07 1014.11 1014.33 1014.51
1014.25 1017.97 1023.45 1025.57 1026.36 1026.69 1026.59 1026.34 1025.88 1025.92 1026.27 1026.43 1027.11 1027.88 1029.26 1029.62 1029.40 1029.37 1029.13 1028.79 1028.40 1028.10 1027.43 1026.66 1026.01 1025.31 1024.69 1024.01 1023.31 1022.68 1022.14 1021.63 1021.14 1020.53 1020.00 1019.24 1018.65 1017.82 1017.34 1016.66 1016.18 1015.50 1014.89 1014.42 1013.90 1013.96 1013.90 1014.05 1014.38
1016.03 1019.86 1024.30 1026.05 1026.85 1027.03 1026.86 1026.67 1026.64 1026.79 1026.77 1027.04 1027.24 1028.46 1029.82 1029.87 1029.81 1029.70 1029.46 1029.02 1028.56 1028.13 1027.53 1026.93 1026.39 1025.85 1025.23 1024.57 1023.78 1023.23 1022.63 1022.12 1021.77 1021.25 1020.57 1020.15 1019.38 1018.56 1017.82 1017.20 1016.68 1016.00 1015.28 1014.73 1014.17 1013.77 1013.65 1013.76 1014.09
1016.68 1020.75 1024.81 1026.17 1027.01 1027.64 1027.38 1026.91 1027.17 1027.04 1027.49 1027.50 1027.81 1028.98 1029.99 1030.05 1030.03 1029.81 1029.56 1029.27 1028.72 1028.25 1027.79 1027.32 1026.81 1026.34 1025.71 1025.09 1024.46 1023.87 1023.23 1022.73 1022.35 1021.89 1021.19 1020.66 1020.14 1019.41 1018.45 1017.82 1016.98 1016.49 1015.81 1015.28 1014.45 1013.95 1013.39 1013.47 1013.87
1017.30 1021.58 1025.10 1026.35 1026.85 1027.76 1027.55 1027.29 1027.62 1027.89 1027.88 1028.28 1028.74 1029.29 1029.82 1029.84 1029.92 1029.85 1029.82 1029.47 1028.92 1028.41 1028.10 1027.56 1027.07 1026.64 1026.14 1025.40 1025.02 1024.44 1023.89 1023.41 1022.99 1022.55 1021.97 1021.26 1020.83 1020.13 1019.26 1018.54 1017.60 1016.91 1016.11 1015.58 1014.85 1014.25 1013.51 1012.94 1013.49
1019.09 1023.22 1025.20 1025.63 1026.41 1027.17 1027.55 1027.55 1027.81 1028.53 1028.79 1029.32 1029.79 1029.96 1029.97 1029.87 1029.94 1030.08 1030.08 1029.92 1029.40 1028.98 1028.51 1028.26 1027.68 1027.07 1026.44 1025.82 1025.34 1024.82 1024.36 1024.05 1023.69 1023.25 1022.69 1022.06 1021.43 1020.72 1019.97 1019.14 1017.84 1017.38 1016.52 1015.94 1015.29 1014.52 1013.54 1013.03 1012.88
1021.18 1024.03 1025.45 1026.23 1026.48 1026.98 1027.50 1027.96 1028.40 1028.95 1029.36 1029.61 1029.96 1030.24 1030.28 1030.37 1030.37 1030.27 1030.17 1030.04 1029.91 1029.59 1029.03 1028.49 1028.03 1027.51 1026.90 1026.25 1025.74 1025.19 1024.77 1024.40 1024.21 1023.78 1023.22 1022.67 1021.89 1021.24 1020.43 1019.75 1018.86 1018.12 1017.42 1016.88 1015.74 1014.78 1014.43 1013.38 1012.79
1022.80 1025.01 1025.47 1026.58 1026.95 1027.26 1027.72 1028.16 1028.76 1029.00 1029.40 1029.57 1029.81 1030.10 1030.38 1030.50 1030.42 1030.33 1030.37 1030.25 1030.11 1029.80 1029.33 1028.82 1028.29 1027.85 1027.24 1026.66 1026.18 1025.81 1025.38 1024.85 1024.66 1024.25 1023.65 1023.16 1022.42 1021.72 1021.14 1020.63 1019.80 1018.71 1017.70 1017.70 1016.95 1015.59 1014.75 1013.80 1013.11
1023.47 1025.35 1025.98 1026.57 1027.07 1027.41 1027.85 1028.53 1028.85 1029.55 1029.66 1029.92 1030.21 1030.41 1030.59 1030.55 1030.48 1030.52 1030.55 1030.45 1030.21 1030.00 1029.40 1029.01 1028.54 1028.18 1027.72 1027.09 1026.63 1026.15 1025.77 1025.35 1025.17 1024.69 1024.20 1023.65 1022.96 1022.30 1021.59 1021.05 1020.44 1019.98 1018.95 1017.55 1015.75 1017.18 1014.55 1014.03 1013.17
1024.57 1025.48 1026.54 1027.01 1027.36 1027.97 1028.30 1029.20 1029.16 1030.00 1030.13 1030.51 1030.64 1030.84 1030.78 1030.61 1030.53 1030.43 1030.48 1030.60 1030.31 1029.96 1029.53 1029.16 1028.78 1028.47 1027.98 1027.52 1027.11 1026.60 1026.12 1025.82 1025.42 1025.08 1024.69 1024.23 1023.47 1022.72 1021.80 1021.29 1020.85 1020.35 1019.75 1018.25 1016.32 1015.30 1015.41 1014.36 1013.80
1024.99 1025.66 1027.14 1027.62 1027.65 1028.37 1028.28 1029.61 1029.97 1030.10 1030.23 1030.84 1030.98 1031.01 1030.93 1030.78 1030.64 1030.65 1030.62 1030.51 1030.36 1029.94 1029.55 1029.21 1028.63 1028.49 1028.18 1027.79 1027.25 1026.80 1026.45 1026.04 1025.69 1025.43 1025.04 1024.57 1023.91 1023.15 1022.26 1021.48 1021.17 1020.66 1020.00 1019.17 1018.21 1017.31 1015.94 1015.02 1014.01
1025.65 1026.58 1027.56 1027.99 1027.78 1028.18 1028.73 1030.03 1030.26 1030.26 1030.35 1031.11 1031.26 1031.32 1031.20 1030.90 1030.77 1030.68 1030.71 1030.49 1030.22 1029.93 1029.70 1029.34 1028.87 1028.62 1028.34 1027.97 1027.51 1026.96 1026.63 1026.38 1026.05 1025.64 1025.30 1024.82 1024.17 1023.44 1022.66 1021.62 1021.34 1020.97 1020.29 1019.23 1018.47 1017.72 1016.50 1014.82 1014.48
1025.64 1026.68 1027.39 1028.35 1028.15 1028.47 1028.77 1030.20 1030.33 1030.43 1030.52 1031.22 1031.56 1031.54 1031.25 1031.10 1030.89 1030.73 1030.63 1030.38 1030.10 1029.96 1029.78 1029.44 1029.13 1028.88 1028.56 1028.16 1027.75 1027.24 1026.94 1026.64 1026.26 1025.81 1025.41 1024.93 1024.41 1023.75 1023.04 1022.34 1021.75 1021.01 1020.65 1020.02 1019.38 1018.39 1017.42 1016.14 1014.38
1025.56 1026.81 1027.60 1027.91 1028.61 1028.55 1029.42 1030.19 1030.49 1030.63 1030.70 1031.44 1031.63 1031.53 1031.35 1031.31 1031.26 1030.90 1030.60 1030.34 1030.16 1030.05 1029.78 1029.52 1029.39 1029.06 1028.73 1028.41 1027.93 1027.49 1027.14 1026.84 1026.45 1026.02 1025.52 1025.09 1024.57 1023.90 1023.34 1022.80 1022.15 1021.18 1020.66 1020.34 1019.79 1018.39 1016.95 1016.52 1015.17
1024.79 1026.09 1027.39 1028.19 1028.50 1028.90 1029.79 1030.35 1030.60 1030.72 1031.10 1031.58 1031.67 1031.63 1031.62 1031.41 1031.20 1030.91 1030.66 1030.47 1030.28 1030.06 1029.89 1029.80 1029.56 1029.24 1029.01 1028.61 1028.21 1027.65 1027.49 1027.10 1026.65 1026.34 1025.97 1025.36 1024.79 1024.08 1023.33 1022.92 1022.27 1021.51 1020.85 1020.33 1020.10 1019.59 1018.54 1016.49 1015.83
1024.92 1026.28 1027.79 1028.40 1028.55 1029.19 1030.43 1030.77 1030.84 1030.86 1031.01 1031.28 1031.55 1031.74 1031.76 1031.59 1031.34 1031.02 1030.78 1030.58 1030.46 1030.37 1030.18 1030.00 1029.75 1029.47 1029.17 1028.90 1028.52 1028.19 1027.87 1027.44 1027.14 1026.72 1026.23 1025.64 1025.07 1024.25 1023.47 1022.98 1022.43 1021.77 1021.19 1020.53 1019.88 1019.51 1018.71 1017.68 1017.18
1025.71 1026.42 1027.41 1028.04 1029.10 1029.79 1030.72 1031.22 1030.95 1030.87 1031.02 1031.33 1031.52 1031.77 1031.82 1031.75 1031.55 1031.29 1031.12 1030.69 1030.68 1030.47 1030.33 1030.18 1029.94 1029.64 1029.25 1029.02 1028.70 1028.42 1028.07 1027.66 1027.27 1026.88 1026.32 1025.82 1025.19 1024.37 1023.71 1022.94 1022.49 1021.87 1021.35 1020.96 1020.40 1019.68 1019.52 1018.74 1017.69
1025.99 1026.56 1027.36 1028.32 1029.50 1030.41 1030.65 1031.61 1031.08 1031.07 1031.30 1031.51 1031.79 1032.01 1031.95 1031.73 1031.57 1031.46 1031.15 1030.85 1030.76 1030.53 1030.39 1030.33 1030.09 1029.78 1029.30 1029.24 1029.23 1029.19 1028.95 1028.45 1027.86 1027.37 1026.78 1026.13 1025.37 1024.60 1023.73 1022.99 1022.42 1021.83 1021.43 1021.03 1020.58 1020.13 1019.64 1018.86 1017.72
1026.09 1026.74 1027.83 1029.09 1030.23 1031.01 1031.55 1032.08 1031.31 1031.24 1031.57 1031.60 1031.90 1032.01 1031.87 1031.73 1031.70 1031.54 1031.24 1031.15 1030.82 1030.64 1030.70 1030.56 1030.30 1030.03 1029.82 1029.70 1029.69 1029.47 1029.17 1028.74 1028.04 1027.48 1027.03 1026.35 1025.61 1024.88 1023.79 1023.10 1022.42 1021.91 1021.40 1020.98 1020.62 1020.36 1019.97 1019.24 1018.22
1026.20 1027.66 1029.19 1030.52 1031.60 1032.70 1032.03 1032.34 1031.69 1031.31 1030.81 1031.27 1031.78 1031.88 1031.68 1031.78 1031.65 1031.38 1031.23 1031.03 1030.95 1030.83 1030.92 1030.75 1030.60 1030.46 1030.24 1030.01 1029.94 1029.63 1029.29 1028.76 1028.20 1027.49 1027.05 1026.41 1025.74 1025.04 1024.33 1023.38 1022.72 1022.20 1021.68 1021.06 1020.79 1020.74 1020.21 1019.45 1018.77
1027.06 1028.97 1031.38 1033.02 1033.91 1033.83 1032.75 1032.63 1030.69 1030.29 1030.25 1030.56 1031.31 1031.55 1031.58 1031.65 1031.69 1031.56 1031.64 1031.40 1031.28 1031.16 1031.26 1031.03 1030.93 1030.86 1030.46 1030.35 1030.01 1029.73 1029.37 1028.80 1028.39 1027.89 1027.32 1026.58 1025.89 1025.35 1024.76 1023.82 1023.09 1022.61 1022.12 1021.59 1021.10 1020.84 1020.44 1019.66 1019.06
1028.15 1029.64 1031.85 1034.13 1035.68 1034.84 1033.50 1032.88 1030.91 1030.39 1030.45 1030.69 1031.13 1031.39 1031.52 1031.48 1031.53 1031.48 1031.63 1031.59 1031.51 1031.42 1031.49 1031.39 1031.24 1031.05 1030.76 1030.51 1030.23 1029.89 1029.45 1029.05 1028.71 1028.19 1027.55 1026.96 1026.33 1025.69 1024.94 1024.31 1023.57 1023.00 1022.56 1022.11 1021.75 1021.27 1020.49 1019.90 1019.34
1029.01 1030.53 1032.03 1034.45 1036.77 1037.01 1034.98 1033.11 1031.69 1031.32 1031.34 1031.33 1031.27 1031.46 1031.53 1031.48 1031.34 1031.54 1031.49 1031.55 1031.53 1031.56 1031.67 1031.60 1031.41 1031.18 1030.87 1030.61 1030.41 1030.05 1029.73 1029.36 1029.00 1028.48 1027.82 1027.23 1026.53 1025.79 1025.08 1024.49 1023.86 1023.18 1022.67 1022.23 1021.94 1021.55 1020.72 1019.92 1019.25
1029.42 1031.29 1033.43 1035.83 1038.51 1038.98 1036.72 1034.77 1032.79 1032.22 1031.91 1031.90 1031.59 1031.54 1031.44 1031.38 1031.29 1031.45 1031.53 1031.48 1031.56 1031.70 1031.74 1031.66 1031.46 1031.26 1030.96 1030.69 1030.55 1030.36 1030.09 1029.63 1029.24 1028.73 1028.18 1027.54 1026.80 1026.09 1025.35 1024.64 1024.02 1023.39 1022.80 1022.53 1022.12 1021.55 1020.92 1020.17 1019.43
1030.68 1032.75 1035.13 1037.34 1039.67 1039.77 1038.87 1035.48 1032.43 1031.63 1031.76 1032.05 1031.71 1031.36 1031.37 1031.30 1031.30 1031.37 1031.37 1031.53 1031.61 1031.87 1031.88 1031.82 1031.48 1031.23 1030.99 1030.81 1030.76 1030.57 1030.31 1029.91 1029.46 1028.99 1028.33 1027.80 1027.11 1026.29 1025.59 1024.89 1024.17 1023.66 1023.08 1022.62 1022.23 1021.65 1020.83 1020.22 1019.67
1030.67 1032.94 1035.03 1038.03 1040.49 1040.71 1039.94 1034.95 1032.51 1031.88 1031.68 1031.76 1031.57 1030.98 1030.99 1031.11 1030.96 1031.05 1031.32 1031.55 1031.83 1031.99 1031.99 1031.74 1031.47 1031.25 1031.00 1030.95 1030.92 1030.72 1030.52 1030.16 1029.61 1029.10 1028.54 1027.77 1027.31 1026.51 1025.91 1025.23 1024.65 1024.09 1023.54 1023.03 1022.41 1021.77 1020.91 1020.22 1019.53
Wind_Speed
12 8 1 7 10 9 5 6 5 4 5 12 13 15 14 5 7 6 2 10 11 14 15 17 28 27 26 27 27 26 27 27 27 27 26 24 19 9 6 6 6 6 6 7 7 7 6 6 7
6 4 7 5 9 6 2 3 12 8 13 12 13 8 6 12 8 7 6 10 8 12 13 16 27 26 27 27 27 27 27 29 28 28 28 27 25 21 13 9 8 8 7 8 8 8 7 8 8
1 6 9 7 6 4 3 3 6 13 7 1 5 9 6 9 13 4 7 7 8 14 14 17 28 27 27 28 28 27 27 26 27 29 29 28 28 27 25 14 9 9 9 9 9 9 7 8 10
4 8 8 10 11 8 4 6 2 6 10 9 8 8 5 11 5 3 7 9 11 12 12 18 27 27 28 29 28 27 29 27 24 27 28 27 27 27 26 24 15 12 11 10 10 8 8 9 10
6 6 9 6 8 5 6 9 10 8 5 9 4 8 7 5 7 3 6 9 10 11 12 14 27 27 27 29 30 28 29 29 26 28 28 29 28 27 27 26 23 18 14 12 11 10 9 11 11
7 6 7 5 5 5 6 6 13 13 9 6 10 8 5 3 5 4 5 7 6 7 11 13 20 27 26 27 30 29 29 29 30 29 28 29 27 27 27 25 26 24 20 18 11 10 10 10 11
10 7 6 11 6 5 2 3 9 10 14 10 5 7 4 6 2 3 6 7 7 6 9 10 12 17 21 24 27 27 28 28 29 29 30 28 27 27 27 26 25 26 23 19 17 11 11 11 11
8 8 7 4 5 5 3 3 4 5 6 3 3 5 3 2 3 5 6 8 7 7 8 10 10 12 13 11 24 27 24 26 28 29 29 28 26 25 26 27 25 26 24 22 17 16 12 11 11
4 8 5 7 7 9 5 11 9 8 13 8 5 5 4 1 5 7 5 6 6 8 8 11 12 11 11 13 14 17 21 22 23 23 27 19 13 16 18 22 25 27 25 24 20 18 12 12 11
8 7 3 4 8 8 8 11 7 7 11 8 6 4 5 6 7 7 7 7 7 8 8 7 7 9 11 10 10 10 11 8 8 11 14 11 12 15 18 19 26 23 27 24 24 21 17 10 5
5 7 11 8 15 13 11 12 4 9 5 5 7 5 4 6 6 6 5 4 5 4 5 9 9 7 10 10 8 6 6 6 6 11 11 11 10 10 10 10 10 11 19 10 14 13 9 11 6
17 8 7 8 9 9 8 6 5 6 6 8 8 6 4 6 5 5 5 4 4 5 6 7 7 7 8 6 7 8 8 7 6 8 12 10 8 10 9 8 12 11 11 13 11 8 11 12 12
21 13 13 11 11 9 13 8 7 6 6 7 7 7 6 5 3 2 2 5 5 7 7 8 7 7 7 9 8 7 7 7 5 8 10 10 9 8 8 9 10 11 11 10 9 12 9 12 11
9 17 14 8 12 8 12 2 6 1 5 7 7 4 2 4 2 3 5 4 6 5 6 6 6 7 7 7 7 6 6 6 6 7 9 14 9 9 8 10 11 12 11 12 11 12 11 11 9
18 21 14 6 3 11 10 8 3 4 8 7 5 4 2 2 2 4 4 4 4 2 4 6 5 6 7 7 6 6 5 5 6 6 10 13 12 11 11 10 11 11 12 13 11 11 9 9 9
14 7 5 5 2 4 5 2 1 4 10 6 5 2 2 2 3 3 5 3 2 2 5 6 5 6 7 7 6 5 5 4 5 5 6 11 11 12 11 10 10 11 11 11 11 10 11 10 10
1 5 9 4 3 3 4 4 3 3 8 6 4 3 4 6 7 5 3 2 0 2 5 5 6 7 7 7 5 6 6 4 4 4 4 10 10 11 10 10 10 12 8 10 11 10 9 10 12
6 6 3 6 1 5 6 4 4 4 8 5 3 4 6 6 4 4 4 1 2 3 4 5 5 6 7 5 5 4 4 4 4 6 7 11 7 9 8 8 9 10 9 9 11 14 11 10 9
8 8 8 2 2 8 3 6 7 3 5 5 4 4 4 4 5 3 3 5 6 4 6 6 6 6 4 3 4 4 5 4 6 8 10 11 10 9 12 10 12 11 10 11 11 10 12 9 12
9 16 4 2 6 5 4 4 3 2 3 5 5 3 3 3 4 5 6 6 5 6 5 6 6 5 4 3 3 3 3 3 3 6 7 9 9 13 12 12 10 11 9 11 11 12 10 8 9
4 7 8 7 6 5 7 4 3 2 3 4 3 1 0 1 3 6 7 7 7 7 5 5 6 6 5 6 4 4 3 4 3 6 7 9 9 12 12 12 12 9 9 8 10 12 13 8 7
5 3 5 8 4 4 3 4 4 5 5 4 3 2 2 3 4 5 7 7 7 7 4 5 6 6 6 7 6 6 4 4 3 4 6 8 10 11 11 10 9 8 7 9 7 8 10 11 10
4 6 5 3 4 5 1 4 5 8 5 6 6 6 3 4 5 8 8 6 6 6 4 5 5 7 7 7 5 4 5 4 4 5 7 6 9 10 12 11 10 9 7 9 9 11 11 8 8
7 6 8 5 3 4 5 6 6 6 8 5 4 6 3 6 7 7 6 7 7 5 5 5 6 6 7 6 5 7 7 8 7 8 6 6 7 7 11 12 9 10 9 9 8 11 10 9 9
7 7 4 6 5 7 2 1 9 8 5 8 9 7 5 6 7 7 8 8 6 6 5 4 6 6 7 6 6 7 7 7 8 9 6 8 8 8 10 12 10 9 11 10 9 10 10 9 9
3 6 7 7 3 4 1 6 7 3 5 6 5 5 5 7 4 6 6 5 2 4 4 5 5 6 6 5 7 7 7 5 6 6 6 7 7 8 10 9 10 9 9 8 10 7 9 9 8
3 3 3 7 4 5 4 6 4 3 4 4 5 4 6 7 6 6 6 2 3 3 3 4 4 6 5 6 6 7 6 7 6 8 7 7 8 9 10 9 9 9 9 10 11 7 9 10 9
3 3 4 4 2 5 6 6 7 8 8 6 6 7 6 7 7 5 3 4 2 2 2 4 4 4 4 6 6 5 6 6 6 7 9 9 9 10 11 10 11 8 9 11 11 10 10 10 8
3 3 7 6 5 7 1 10 7 11 9 9 8 7 7 7 7 5 3 3 3 1 3 4 3 4 5 6 5 5 5 6 6 7 9 8 9 10 11 11 13 10 11 11 11 14 12 11 11
3 6 7 7 6 2 5 11 4 5 7 7 8 7 5 4 6 4 6 4 2 1 4 4 3 4 5 5 5 5 6 6 6 8 9 8 7 10 11 11 12 11 9 11 16 14 12 12 11
Wind_Direction
318 315 152 44 59 59 52 21 345 109 83 59 56 69 77 62 40 87 84 2 356 357 357 354 5 5 5 7 6 5 9 9 8 8 7 4 355 290 253 235 222 216 203 197 202 195 183 172 148
321 339 44 62 73 61 27 31 30 44 138 119 69 53 64 64 48 76 4 344 346 4 4 359 10 10 10 9 9 7 11 10 8 8 7 3 1 0 294 248 230 221 214 209 212 217 201 175 160
209 32 65 61 59 89 127 15 64 61 45 77 88 40 29 338 38 78 328 337 3 13 3 2 14 15 14 14 11 13 8 5 4 8 6 4 4 0 356 295 254 243 226 219 219 219 207 181 168
68 31 48 71 81 19 57 318 228 132 59 46 103 67 74 23 72 32 325 12 21 8 2 6 16 17 17 17 15 13 12 9 5 7 5 6 4 2 1 354 300 258 250 237 221 220 206 184 177
47 61 61 66 53 74 43 34 57 73 106 52 99 91 81 37 100 99 20 22 21 9 2 6 16 17 16 16 17 16 17 15 9 9 7 4 4 1 1 355 356 343 272 246 233 218 202 188 185
56 87 84 82 77 63 42 43 84 80 91 92 78 100 67 3 76 23 4 10 9 6 5 6 12 16 15 13 17 18 19 18 17 11 4 360 0 358 356 356 354 359 340 323 242 224 211 193 195
97 71 92 114 100 48 125 112 59 81 66 37 103 94 69 30 360 62 19 3 2 3 12 3 3 8 6 11 13 12 17 18 17 13 12 4 0 356 351 354 350 354 353 340 327 235 215 205 198
95 86 133 89 147 79 7 90 38 45 32 125 75 73 77 309 58 56 18 2 360 5 10 1 0 4 1 4 5 10 7 13 15 15 13 10 6 357 352 347 347 348 350 346 333 337 228 208 203
87 67 101 142 144 137 194 94 56 70 90 56 50 96 145 128 65 48 5 1 11 14 8 5 6 9 2 5 359 359 359 6 16 12 9 8 3 355 351 343 344 341 343 346 349 331 318 208 208
66 85 105 147 129 144 127 115 116 101 90 82 78 61 79 59 54 57 28 13 7 5 356 2 353 2 3 3 359 354 353 360 4 8 6 3 1 360 357 347 349 345 338 344 342 342 334 259 191
56 108 112 80 114 118 105 91 75 116 80 146 149 141 81 70 56 72 39 20 359 334 352 357 0 356 5 4 359 355 359 4 3 7 7 359 357 355 359 351 342 340 347 335 333 341 328 339 238
102 88 106 133 117 110 102 108 81 123 153 153 138 128 106 86 67 71 72 39 5 6 345 348 358 359 5 3 1 354 2 7 9 6 4 358 357 356 355 355 350 350 347 334 327 319 320 320 327
94 101 102 109 104 100 115 118 122 117 126 111 108 87 92 91 91 93 88 36 25 24 359 352 6 2 358 9 359 358 1 1 4 5 1 358 352 347 349 352 351 352 353 343 347 307 333 321 320
140 114 117 114 107 110 111 116 87 34 121 85 95 103 107 98 64 44 35 47 37 26 349 339 8 2 4 2 348 347 356 351 8 360 359 353 342 340 346 354 351 350 343 332 335 346 326 323 316
120 106 102 103 138 117 90 33 48 121 107 108 139 177 135 84 24 36 26 65 30 349 324 357 360 5 11 351 344 354 352 0 8 355 0 353 346 342 330 352 354 348 342 337 332 329 331 320 302
109 86 113 260 128 345 97 185 106 169 111 131 155 153 78 40 8 24 34 98 33 3 350 352 3 1 6 354 344 344 346 357 356 354 354 352 345 345 336 352 351 351 346 339 343 340 333 327 321
79 139 124 152 254 176 89 188 201 203 121 144 122 78 58 40 22 16 32 137 342 319 347 354 357 357 353 344 334 334 345 357 344 338 340 346 346 347 348 360 348 347 350 345 343 335 338 321 310
154 124 75 138 253 73 92 166 188 198 126 134 92 75 59 49 3 346 20 347 287 326 334 356 353 348 344 329 326 323 340 346 340 342 348 341 331 347 340 354 345 347 346 351 350 337 341 316 322
120 112 119 97 121 84 159 166 208 162 103 109 94 74 52 33 321 338 360 326 327 324 337 358 345 342 354 325 342 346 349 335 356 353 346 341 335 345 356 356 353 347 345 346 354 344 334 343 339
102 116 106 83 197 86 162 228 243 229 186 159 140 108 67 11 347 340 335 341 317 298 325 344 351 352 347 345 324 337 332 322 333 339 337 335 338 357 354 354 351 345 341 342 347 353 347 338 346
52 144 169 150 138 52 128 313 214 185 108 116 99 105 268 252 339 328 330 311 356 334 333 343 351 0 3 355 344 352 328 315 326 345 349 340 326 357 350 355 354 344 343 340 345 348 353 335 334
96 182 142 128 104 185 176 272 252 181 165 152 165 230 248 311 332 315 323 328 346 331 338 9 16 8 2 2 18 11 330 324 301 304 322 330 325 337 345 336 340 347 342 338 343 351 344 336 337
157 123 123 106 95 88 249 74 269 139 210 208 217 226 250 304 299 308 307 345 319 356 20 16 21 14 2 9 22 333 328 292 292 307 322 325 335 326 333 341 341 340 344 344 349 358 346 334 329
122 85 47 51 72 29 234 127 270 196 195 178 200 224 263 299 302 301 332 344 355 33 31 33 21 2 0 3 340 331 320 317 325 331 328 331 336 330 330 337 346 349 347 345 0 350 342 332 335
77 67 9 3 9 220 254 111 239 214 184 167 188 218 257 277 285 320 354 343 2 45 29 18 17 355 345 355 302 333 328 319 322 333 324 335 340 338 333 337 352 355 354 353 356 343 342 338 334
100 133 147 192 202 263 8 243 257 171 117 129 174 210 263 275 302 314 339 357 59 62 37 17 358 351 344 336 331 333 337 340 347 341 330 338 336 329 333 338 345 345 345 355 357 341 347 340 331
172 74 146 103 20 35 252 296 340 123 147 188 209 234 273 284 298 337 342 96 105 65 23 344 336 336 342 321 346 347 352 4 356 343 339 339 334 333 336 336 339 340 343 1 355 350 341 335 330
103 113 74 11 128 271 292 277 234 212 209 220 228 241 277 285 309 338 356 143 108 55 325 329 317 324 323 337 353 10 6 357 347 340 339 336 335 334 334 341 344 335 345 3 353 351 345 335 335
38 50 53 104 110 158 240 262 223 206 183 207 237 248 262 290 300 312 152 131 105 29 311 311 330 341 339 353 4 29 6 350 341 341 334 332 331 341 342 345 353 350 3 1 356 354 341 340 336
106 153 130 121 258 158 151 274 249 203 194 211 245 261 269 269 286 145 153 136 117 279 298 340 336 347 325 356 29 29 7 345 342 340 328 328 336 347 346 347 354 356 17 7 1 354 336 340 342